DW5789 Weather Reports


Display with metric or nautical units.
time (UTC)temp
F
wind
direction
speed
MPH
gust
MPH
rain 1hr
in
rain 24hr
in
rain mn
in
humidity
%
barometer
mb
20190822110020 61 252 0.0 0.0 0.00 0.00 0.00 96 1016.0
20190822105011 60 252 0.0 0.0 0.00 0.00 0.00 96 1016.0
20190822104023 60 252 0.0 0.0 0.00 0.00 0.00 96 1015.9
20190822103026 60 252 0.0 0.0 0.00 0.00 0.00 96 1016.0
20190822102018 60 252 0.0 0.0 0.00 0.00 0.00 96 1016.0
20190822101029 60 252 0.0 0.0 0.00 0.00 0.00 96 1015.9
20190822100011 60 252 0.0 0.0 0.00 0.00 0.00 96 1015.9
20190822095023 60 252 0.0 0.0 0.00 0.00 0.00 96 1015.9
20190822094014 60 252 0.0 0.0 0.00 0.00 0.00 96 1016.0
20190822093028 60 252 0.0 0.0 0.00 0.00 0.00 96 1016.1
20190822092011 60 252 0.0 0.0 0.00 0.00 0.00 96 1016.1
20190822091022 60 252 0.0 0.0 0.00 0.00 0.00 96 1016.2
20190822090014 60 252 0.0 0.0 0.00 0.00 0.00 96 1016.3
20190822085026 60 252 0.0 0.0 0.00 0.00 0.00 96 1016.4
20190822084013 60 252 0.0 0.0 0.00 0.00 0.00 96 1016.4
20190822083023 60 252 0.0 0.0 0.00 0.00 0.00 96 1016.6
20190822082015 60 252 0.0 0.0 0.00 0.00 0.00 96 1016.7
20190822081017 60 252 0.0 0.0 0.00 0.00 0.00 95 1016.6
20190822080028 60 252 0.0 0.0 0.00 0.00 0.00 95 1016.7
20190822075019 61 252 0.0 0.0 0.00 0.00 0.00 95 1016.7
20190822074033 61 252 0.0 0.0 0.00 0.00 0.00 95 1016.8
20190822073022 61 252 0.0 0.0 0.00 0.00 0.00 95 1017.0
20190822072014 61 252 0.0 0.0 0.00 0.00 0.00 95 1017.0
20190822071026 61 252 0.0 0.0 0.00 0.00 0.00 95 1017.1
20190822070036 61 252 0.0 0.0 0.00 0.00 0.00 95 1017.1
20190822065019 61 252 0.0 0.0 0.00 0.00 0.00 95 1017.0
20190822064022 61 252 0.0 0.0 0.00 0.00 0.00 95 1017.1
20190822063011 61 252 0.0 0.0 0.00 0.00 0.00 95 1017.0
20190822062022 61 252 0.0 0.0 0.00 0.00 0.00 95 1016.8
20190822061026 61 252 0.0 0.0 0.00 0.00 0.00 95 1017.0
20190822060017 61 252 0.0 0.0 0.00 0.00 0.00 95 1017.0
20190822055028 61 252 0.0 0.0 0.00 0.00 0.00 95 1017.1
20190822054013 61 252 0.0 0.0 0.00 0.00 0.00 95 1017.0
20190822053025 61 252 0.0 0.0 0.00 0.00 0.00 95 1017.3
20190822052016 61 252 0.0 0.0 0.00 0.00 0.00 95 1017.2
20190822051029 61 252 0.0 0.0 0.00 0.00 0.00 95 1017.3
20190822050012 61 252 0.0 0.0 0.00 0.00 0.00 95 1017.5
20190822045024 61 252 0.0 0.0 0.00 0.00 0.00 95 1017.4
20190822044015 61 252 0.0 0.0 0.00 0.00 0.00 95 1017.7
20190822043024 61 252 0.0 0.0 0.00 0.00 0.00 95 1017.7
20190822042029 61 252 0.0 0.0 0.00 0.00 0.00 95 1017.8
20190822041021 61 252 0.0 0.0 0.00 0.00 0.00 95 1017.6
20190822040015 61 252 0.0 0.0 0.00 0.00 0.00 95 1017.3
20190822035026 61 252 0.0 0.0 0.00 0.00 0.00 94 1017.1
20190822034010 61 252 0.0 0.0 0.00 0.00 0.00 94 1017.1
20190822033022 61 252 0.0 0.0 0.00 0.00 0.00 94 1017.0
20190822032012 61 252 0.0 0.0 0.00 0.00 0.00 94 1017.0
20190822031026 61 252 0.0 0.0 0.00 0.00 0.00 94 1017.0
20190822030010 61 252 0.0 0.0 0.00 0.00 0.00 94 1017.0
20190822025020 61 252 0.0 0.0 0.00 0.00 0.00 94 1016.9
20190822024032 61 252 0.0 0.0 0.00 0.00 0.00 94 1017.2
20190822023016 61 252 0.0 0.0 0.00 0.00 0.00 94 1016.8
20190822022029 61 252 0.0 0.0 0.00 0.00 0.00 94 1016.9
20190822021020 61 252 0.0 0.0 0.00 0.00 0.00 93 1016.8
20190822020031 61 252 0.0 0.0 0.00 0.00 0.00 93 1017.0
20190822015011 61 252 0.0 0.0 0.00 0.00 0.00 93 1017.1
20190822014022 61 252 0.0 0.0 0.00 0.00 0.00 93 1017.0
20190822013013 62 252 0.0 0.0 0.00 0.00 0.00 93 1017.1
20190822012018 62 252 0.0 0.0 0.00 0.00 0.00 92 1017.1
20190822011010 62 252 0.0 0.0 0.00 0.00 0.00 92 1017.2
20190822010020 62 252 0.0 0.0 0.00 0.00 0.00 92 1017.0
20190822005011 62 252 0.0 0.0 0.00 0.00 0.00 91 1016.9
20190822004015 63 252 0.0 0.0 0.00 0.00 0.00 91 1016.7
20190822003026 63 252 0.0 0.0 0.00 0.00 0.00 91 1016.8
20190822002018 63 252 0.0 0.0 0.00 0.00 0.00 90 1016.9
20190822001028 63 252 0.0 0.0 0.00 0.00 0.00 89 1017.0
20190822000011 64 252 0.0 0.0 0.00 0.00 0.00 88 1017.1
20190821235023 65 252 0.0 0.0 0.00 0.00 0.00 87 1017.2
20190821234015 65 252 0.0 0.0 0.00 0.00 0.00 85 1017.1
20190821233027 66 266 0.0 0.0 0.00 0.00 0.00 82 1017.2
20190821232015 67 254 0.0 0.0 0.00 0.00 0.00 79 1016.9
20190821231009 68 249 0.0 0.0 0.00 0.00 0.00 76 1016.6
20190821230027 68 239 0.0 0.0 0.00 0.00 0.00 75 1016.1
20190821225014 68 225 0.0 0.0 0.00 0.00 0.00 76 1016.0
20190821224010 68 248 0.0 0.0 0.00 0.00 0.00 79 1016.2
20190821223019 67 255 0.0 0.0 0.00 0.00 0.00 82 1016.3
20190821222016 66 128 0.0 0.0 0.00 0.00 0.00 82 1016.5
20190821221012 66 128 0.0 0.0 0.00 0.00 0.00 81 1016.9
20190821220028 66 281 0.0 0.0 0.00 0.00 0.00 84 1017.0
20190821215018 65 98 0.0 0.0 0.00 0.00 0.00 86 1017.0
20190821214014 64 197 0.0 0.0 0.00 0.00 0.00 87 1017.3
20190821213032 64 197 0.0 0.0 0.00 0.00 0.00 87 1017.4
20190821212020 63 198 0.0 0.0 0.00 0.00 0.00 86 1017.5
20190821211016 63 198 0.0 0.0 0.00 0.00 0.00 84 1017.7
20190821210033 64 257 0.0 0.0 0.00 0.00 0.00 81 1017.7
20190821205021 66 269 0.0 0.0 0.00 0.00 0.00 76 1017.8
20190821204016 68 266 0.0 0.0 0.00 0.00 0.00 66 1017.6
20190821203034 71 247 0.0 0.0 0.00 0.00 0.00 57 1017.5
20190821202022 73 266 0.0 0.0 0.00 0.00 0.00 53 1017.3
20190821201021 74 327 0.0 0.0 0.00 0.00 0.00 48 1017.0
20190821200037 75 236 0.0 0.0 0.00 0.00 0.00 48 1016.9
20190821195025 75 235 0.0 0.0 0.00 0.00 0.00 49 1016.8
20190821194021 76 283 0.0 0.0 0.00 0.00 0.00 48 1016.8
20190821193010 76 338 0.0 0.0 0.00 0.00 0.00 48 1016.8
20190821192025 76 340 0.0 0.0 0.00 0.00 0.00 48 1016.8
20190821191022 75 304 0.0 0.0 0.00 0.00 0.00 48 1016.9
20190821190036 74 299 0.0 0.0 0.00 0.00 0.00 48 1016.9
20190821185023 74 235 0.0 0.0 0.00 0.00 0.00 52 1017.0
20190821184014 73 235 0.0 0.0 0.00 0.00 0.00 53 1017.2
20190821183027 73 236 0.0 0.0 0.00 0.00 0.00 51 1017.3
20190821182011 72 230 0.0 0.0 0.00 0.00 0.00 52 1017.2
20190821181022 71 271 0.0 0.0 0.00 0.00 0.00 54 1017.1
20190821180034 71 283 0.0 0.0 0.00 0.00 0.00 57 1017.3
20190821175019 71 235 0.0 0.0 0.00 0.00 0.00 58 1017.3
20190821174011 70 235 0.0 0.0 0.00 0.00 0.00 59 1017.4
20190821173022 70 235 0.0 0.0 0.00 0.00 0.00 58 1017.3
20190821172035 70 236 0.0 0.0 0.00 0.00 0.00 58 1017.4
20190821171021 69 235 0.0 0.0 0.00 0.00 0.00 60 1017.5
20190821170012 68 142 0.0 0.0 0.00 0.00 0.00 63 1017.6
20190821165023 67 136 0.0 0.0 0.00 0.00 0.00 62 1017.6
20190821164028 66 137 0.0 0.0 0.00 0.00 0.00 64 1017.5
20190821163020 65 131 0.0 0.0 0.00 0.00 0.00 66 1017.5
20190821162015 65 131 0.0 0.0 0.00 0.00 0.00 66 1017.7
20190821161030 64 131 0.0 0.0 0.00 0.00 0.00 66 1017.8
20190821160012 64 131 0.0 0.0 0.00 0.00 0.00 67 1017.9
20190821155023 64 131 0.0 0.0 0.00 0.00 0.00 68 1017.6
20190821154014 63 131 0.0 0.0 0.00 0.00 0.00 69 1017.7
20190821153026 63 131 0.0 0.0 0.00 0.00 0.00 69 1017.8
20190821152010 63 131 0.0 0.0 0.00 0.00 0.00 69 1017.9
20190821151019 63 131 0.0 0.0 0.00 0.00 0.00 68 1017.7
20190821150011 63 131 0.0 0.0 0.00 0.00 0.00 68 1017.6
20190821145014 62 131 0.0 0.0 0.00 0.00 0.00 69 1017.8
20190821144025 62 131 0.0 0.0 0.00 0.00 0.00 68 1018.0
20190821143017 62 128 0.0 0.0 0.00 0.00 0.00 68 1018.1
20190821142029 62 129 0.0 0.0 0.00 0.00 0.00 68 1018.1
20190821141013 61 129 0.0 0.0 0.00 0.00 0.00 71 1018.0
20190821140025 60 128 0.0 0.0 0.00 0.00 0.00 72 1017.8
20190821135016 60 128 0.0 0.0 0.00 0.00 0.00 70 1017.7
20190821134028 60 129 0.0 0.0 0.00 0.00 0.00 71 1017.7
20190821133012 60 128 0.0 0.0 0.00 0.00 0.00 70 1017.6
20190821132022 60 129 0.0 0.0 0.00 0.00 0.00 67 1017.7
20190821131034 60 129 0.0 0.0 0.00 0.00 0.00 67 1017.5
20190821130023 60 128 0.0 0.0 0.00 0.00 0.00 65 1017.5
20190821125029 60 128 0.0 0.0 0.00 0.00 0.00 65 1017.4
20190821124019 60 129 0.0 0.0 0.00 0.00 0.00 65 1017.4
20190821123030 61 128 0.0 0.0 0.00 0.00 0.00 62 1017.3
20190821122014 63 348 0.0 0.0 0.00 0.00 0.00 60 1017.3
20190821121026 63 349 0.0 0.0 0.00 0.00 0.00 58 1017.3
20190821120017 64 349 0.0 0.0 0.00 0.00 0.00 58 1017.3
20190821115028 63 349 0.0 0.0 0.00 0.00 0.00 58 1017.2
20190821114016 63 349 0.0 0.0 0.00 0.00 0.00 59 1017.3
20190821113027 62 349 0.0 0.0 0.00 0.00 0.00 59 1017.4
20190821112016 62 349 0.0 0.0 0.00 0.00 0.00 59 1017.4
20190821111030 62 349 0.0 0.0 0.00 0.00 0.00 58 1017.2